Other Surface Observations
Issued by NWS

Current Version | Previous Version | Text Only | Print | Product List | Glossary On
Versions: 1 2 3 4 5 6 7 8 9 10 11 12 13 14 15 16 17 18 19 20 21 22 23 24 25 26 27 28 29 30 31 32 33 34 35 36 37 38 39 40 41 42 43 44 45 46 47 48 49 50
625
SXUS52 KTAE 220006
OSOTAE
OSOTAE
North Florida/South Alabama/Southwest Georgia Weather Roundup
National Weather Service Tallahassee Florida
800 PM EDT MON AUG 21 2017

Note: "fair" indicates few or no clouds below 12,000 feet with no
significant weather and/or obstructions to visibility.

!FLZ017-115-028-034-025-220100
...North Florida...

CITY           SKY/WX    TMP DP  RH WIND       PRES   REMARKS
TALLAHASSEE    CLOUDY    82  77  84 W3        30.10S HX  90
APALACHICOLA   CLEAR     83  78  85 SE3       30.09S HX  93
PERRY          MOCLDY    81  73  78 S7        30.13R
CROSS CITY     MOCLDY    77  76  96 CALM      30.15F
JACKSONVILLE   MOCLDY    80  77  90 E6        30.12R
$$

!FLZ112-006-005-002-011-220100
...Florida Panhandle...

CITY           SKY/WX    TMP DP  RH WIND       PRES   REMARKS
MARIANNA       CLOUDY    82  75  79 SE5       30.09S
BONIFAY        NOT AVBL
PANAMA CITY NW FAIR      79  76  90 SE3       30.09R
TYNDALL AFB    CLOUDY    82  75  81 CALM      30.10S
TYND DRONE APT MOCLDY    79  77  94 CALM      30.10R
DE FUNIAK SPR  FAIR      74  74  98 CALM      30.12R
EGLIN AFB      LGT RAIN  79  75  86 CALM      30.10R
DESTIN         LGT RAIN  82  75  79 CALM      30.11R
HURLBURT       PTCLDY    81  75  81 CALM      30.10R
CRESTVIEW      LGT RAIN  78  74  87 CALM      30.12R
PENSACOLA      CLOUDY    85  72  65 E5        30.11R HX  91
$$

!ALZ063-066-220100
...South Alabama...

CITY           SKY/WX    TMP DP  RH WIND       PRES   REMARKS
DOTHAN         PTCLDY    80  76  87 W3        30.13F
OZARK CAIRNS   MOCLDY    79  74  84 CALM      30.09F
FT RUCKER HELI MOCLDY    80  75  85 CALM      30.09S
RUCKER HELI 3  FAIR      78  74  88 CALM      30.10R
RUCKER HELI 2  FAIR      79  75  87 CALM      30.09R
FLORALA APT      N/A    N/A N/A N/A MISG      30.13R
ANDALUSIA      MOCLDY    80  73  79 W3        30.11R
TROY           CLOUDY    80  75  84 CALM      30.11R
EUFALA         FAIR      83  78  85 W3        30.09R HX  93
MOBILE         LGT RAIN  76  72  87 S9        30.12R
$$

!GAZ120>161-220100
...Southwest and South Central Georgia...

CITY           SKY/WX    TMP DP  RH WIND       PRES   REMARKS
THOMASVILLE    FAIR      81  73  78 S3        30.12F
BAINBRIDGE     MOCLDY    79  79 100 CALM      30.10S
MOODY AFB      PTCLDY    80  74  80 SE5       30.12S
VALDOSTA       PTCLDY    79  74  84 E5        30.12S
MOULTRIE       PTCLDY    84  72  65 SE5       30.13R
BLAKELY        PTCLDY    86  77  74 CALM      30.10S HX  97
ALBANY         CLEAR     88  72  58 E9        30.12R HX  94
TIFTON         FAIR      83  74  75 CALM      30.13S
FITZGERALD     FAIR      82  80  94 CALM      30.15S HX  92
CORDELE        FAIR      87  74  65 SE8       30.13S HX  96
AMERICUS       FAIR      82  70  65 SE7       30.13S
HOMERVILLE     FAIR      79  73  83 SE3       30.13S
$$

!GMZ750-755-770-775-220100
...Coastal and Buoy Obs...

STATION/POSITION TIME  TEMP    WIND        PRES    VSBY  WAVE
                       AIR SEA DIR/SP/G                  HT/PER
                 (UTC) (F)     (DEG/KT/KT) (MB)    (MI)  (FT/S)
KEATON BEACH     0000   78      70/  6/  7 1019.2R
CEDAR KEY        2300   80     360/  7/  9 1019.5R
C TOWER          0000   83                 1019.7R
APALACHICOLA BUO 2250   84 86  100/  4/  8 1018.4          2/ 5
PANAMA CITY BUOY 2350   84 86  100/ 10/ 12 1018.6R         2/ 6
MOBILE BUOY      2350   84 88  110/ 10/ 14 1018.1F         2/ 4
ORANGE BCH AL BU 2350   85 89  140/ 14/ 16 1018.7S         1/ 3
$$




USA.gov is the U.S. government's official web portal to all federal, state and local government web resources and services.